Total_Precipitation_Accumulation
1.89 1.79 2.52 2.56 2.18 1.78 1.64 1.62 1.48 1.37 1.37 1.28 1.03 0.95 0.92 0.89 0.77 0.65 0.55 0.48 0.49 0.48 0.50 0.50 0.53 0.61 0.65 0.63 0.56 0.72 0.78 0.67 0.60 0.58 0.70 0.82 0.85 0.97 1.11 1.29 1.67 1.97 1.61
1.55 1.49 2.37 2.53 2.17 1.75 1.52 1.52 1.49 1.38 1.38 1.23 1.09 0.97 0.95 0.87 0.78 0.66 0.52 0.48 0.50 0.48 0.47 0.49 0.55 0.57 0.61 0.69 0.66 0.76 0.74 0.60 0.51 0.56 0.87 1.09 1.03 1.01 1.10 1.19 1.59 1.84 1.57
1.24 1.26 1.84 2.34 2.13 1.75 1.51 1.45 1.46 1.39 1.41 1.31 1.20 1.05 0.96 0.86 0.79 0.69 0.56 0.57 0.58 0.54 0.50 0.50 0.62 0.62 0.62 0.79 0.75 0.74 0.71 0.60 0.56 0.73 1.21 1.91 1.51 1.07 1.07 1.14 1.34 1.25 1.30
1.16 1.18 1.39 1.94 1.86 1.54 1.36 1.36 1.40 1.34 1.43 1.36 1.16 1.00 0.85 0.83 0.84 0.75 0.67 0.76 0.62 0.52 0.47 0.53 0.64 0.67 0.69 0.81 0.78 0.74 0.69 0.70 0.79 0.93 1.37 1.86 1.89 1.34 1.22 1.31 1.32 1.19 1.26
1.16 1.19 1.54 1.92 1.77 1.57 1.39 1.44 1.47 1.39 1.40 1.25 1.00 0.83 0.78 0.84 0.87 0.87 0.86 0.85 0.63 0.51 0.44 0.49 0.61 0.67 0.70 0.78 0.74 0.70 0.66 0.76 0.99 1.10 1.37 1.70 2.03 1.65 1.31 1.36 1.37 1.28 1.38
1.16 1.18 1.45 1.77 1.70 1.55 1.41 1.44 1.47 1.48 1.45 1.34 1.07 0.89 0.87 0.90 0.87 0.86 0.91 0.78 0.68 0.59 0.51 0.54 0.61 0.68 0.68 0.73 0.75 0.72 0.75 0.86 0.95 1.16 1.42 1.76 1.92 1.58 1.27 1.31 1.35 1.46 1.44
1.02 1.02 1.15 1.54 1.58 1.47 1.39 1.53 1.58 1.57 1.56 1.49 1.23 1.04 0.95 0.89 0.86 0.87 0.93 0.80 0.74 0.67 0.64 0.67 0.71 0.71 0.70 0.75 0.74 0.72 0.72 0.75 0.79 1.02 1.26 1.75 1.72 1.41 1.25 1.25 1.26 1.33 1.38
1.14 1.02 0.97 1.28 1.37 1.34 1.35 1.43 1.48 1.49 1.45 1.41 1.21 1.04 0.97 0.92 0.88 0.96 1.01 0.91 0.84 0.74 0.69 0.71 0.74 0.80 0.81 0.81 0.79 0.76 0.72 0.64 0.64 0.84 1.09 1.49 1.59 1.46 1.29 1.28 1.39 1.32 1.35
1.27 1.18 1.05 1.06 1.14 1.32 1.42 1.39 1.32 1.24 1.23 1.20 1.08 1.02 0.96 0.93 0.88 0.91 0.94 0.89 0.89 0.88 0.84 0.79 0.82 0.89 0.84 0.85 0.84 0.79 0.74 0.65 0.69 0.84 0.86 1.31 1.50 1.44 1.27 1.26 1.40 1.43 1.42
1.45 1.25 1.05 0.98 1.04 1.09 1.15 1.24 1.29 1.28 1.23 1.20 1.06 0.96 0.92 0.87 0.78 0.81 0.77 0.76 0.85 0.96 1.05 1.00 0.97 0.94 0.93 0.89 0.85 0.79 0.75 0.61 0.69 0.75 0.93 1.12 1.41 1.47 1.34 1.15 1.13 1.16 1.21
1.23 1.10 1.09 1.05 1.09 1.13 1.06 1.08 1.26 1.32 1.31 1.17 1.07 1.00 0.90 0.70 0.62 0.68 0.66 0.80 0.91 1.09 1.18 1.22 1.18 1.12 1.02 0.86 0.81 0.78 0.65 0.58 0.70 0.78 0.99 1.14 1.42 1.51 1.38 1.14 1.05 0.96 0.99
0.89 0.88 0.92 0.95 1.05 1.09 0.99 1.22 1.43 1.29 1.15 0.92 0.93 0.84 0.82 0.75 0.72 0.60 0.65 0.86 1.01 1.09 1.12 1.26 1.35 1.18 0.92 0.66 0.65 0.63 0.50 0.50 0.56 0.64 0.83 1.20 1.45 1.49 1.40 1.20 1.02 0.90 0.90
0.77 0.76 0.71 0.76 0.85 0.95 1.09 1.35 1.61 1.66 1.43 1.22 1.01 0.93 0.90 0.79 0.70 0.66 0.66 0.74 0.82 0.87 0.82 0.89 0.92 0.78 0.68 0.62 0.62 0.51 0.46 0.48 0.52 0.61 0.86 1.21 1.44 1.50 1.36 1.22 1.13 1.02 0.95
0.62 0.70 0.56 0.50 0.65 0.78 0.90 1.03 1.29 1.37 1.31 1.16 0.97 0.88 0.94 0.88 0.78 0.75 0.73 0.79 0.80 0.79 0.86 0.88 0.93 0.86 0.69 0.62 0.62 0.62 0.58 0.54 0.59 0.72 0.90 1.09 1.41 1.57 1.46 1.34 1.26 1.14 1.07
0.61 0.68 0.62 0.52 0.52 0.58 0.64 0.72 0.85 1.03 1.14 1.11 1.04 0.87 0.86 0.85 0.82 0.85 0.79 0.83 0.75 0.73 0.82 0.88 0.89 0.91 0.82 0.70 0.66 0.65 0.72 0.67 0.65 0.71 0.88 1.07 1.42 1.69 1.76 1.57 1.38 1.28 1.23
0.54 0.67 0.67 0.57 0.53 0.54 0.53 0.54 0.54 0.70 0.87 1.01 1.00 0.88 0.90 0.91 0.87 0.92 0.87 0.86 0.84 0.77 0.80 0.97 0.90 0.95 0.94 0.88 0.73 0.69 0.72 0.69 0.66 0.69 0.80 1.04 1.22 1.38 1.67 1.84 1.67 1.48 1.32
0.50 0.56 0.61 0.58 0.59 0.62 0.63 0.64 0.54 0.58 0.66 0.80 0.92 0.90 0.95 0.90 0.82 0.86 0.87 0.85 0.84 0.85 0.84 0.90 0.92 0.99 0.92 0.86 0.82 0.77 0.74 0.70 0.62 0.68 0.70 0.80 0.81 0.96 1.24 1.54 1.70 1.63 1.54
0.56 0.59 0.62 0.62 0.67 0.72 0.76 0.78 0.73 0.78 0.81 0.83 0.97 0.94 0.89 0.92 0.89 0.89 0.93 0.94 0.98 1.02 0.99 1.00 1.03 1.06 1.02 1.01 0.99 0.96 0.79 0.79 0.70 0.70 0.69 0.71 0.77 0.74 0.86 1.01 1.25 1.45 1.63
0.52 0.55 0.57 0.65 0.67 0.68 0.75 0.87 1.00 1.04 1.05 1.02 1.06 1.02 0.91 0.90 0.95 1.06 1.09 1.14 1.12 1.14 1.16 1.12 1.13 1.07 1.08 1.09 1.02 1.00 0.90 0.88 0.83 0.71 0.78 0.80 0.80 0.76 0.79 0.70 0.76 0.87 1.14
0.43 0.46 0.51 0.58 0.76 0.88 0.93 0.94 1.08 1.14 1.22 1.31 1.36 1.24 1.10 1.12 1.25 1.40 1.48 1.42 1.41 1.42 1.42 1.36 1.44 1.33 1.15 1.15 1.08 1.02 0.92 0.83 0.89 0.87 0.85 0.85 0.89 0.86 0.80 0.70 0.66 0.55 0.65
0.29 0.35 0.41 0.48 0.64 0.77 0.85 0.95 1.12 1.29 1.47 1.62 1.74 1.64 1.50 1.46 1.63 1.75 1.69 1.77 1.79 1.67 1.67 1.72 1.77 1.71 1.45 1.32 1.40 1.30 1.03 0.80 0.87 0.86 0.83 0.88 0.94 1.04 1.07 0.94 0.79 0.71 0.66
0.18 0.22 0.28 0.36 0.46 0.59 0.74 0.97 1.17 1.46 1.55 1.64 1.78 1.82 1.76 1.70 1.85 1.89 1.98 2.05 2.09 2.08 2.04 1.93 2.00 2.10 1.83 1.62 1.74 2.03 1.63 1.22 0.88 0.71 0.80 0.84 0.94 1.18 1.24 1.07 0.87 0.80 0.79
0.13 0.15 0.21 0.34 0.47 0.68 0.91 1.23 1.51 1.74 1.82 1.87 1.82 1.89 1.97 2.02 2.08 2.11 2.17 2.23 2.24 2.10 2.09 2.18 2.27 2.60 2.41 2.06 1.88 2.14 1.95 1.62 1.32 0.91 0.84 0.89 0.97 1.14 1.27 1.28 1.16 1.09 0.99
0.13 0.18 0.29 0.46 0.65 0.91 1.25 1.60 1.84 2.06 2.16 2.00 1.98 2.02 2.03 1.98 2.01 2.13 2.14 2.14 2.11 2.05 2.12 2.18 2.21 2.59 2.77 2.48 2.16 1.83 1.62 1.59 1.66 1.36 1.00 0.95 1.03 1.06 1.17 1.24 1.19 1.25 1.22
0.27 0.34 0.50 0.74 1.04 1.31 1.54 1.72 1.94 2.07 2.09 2.06 2.02 2.01 1.94 1.91 1.88 1.91 1.93 2.02 2.05 2.10 2.15 2.31 2.41 2.63 2.66 2.67 2.49 2.31 2.10 1.81 1.47 1.50 1.43 1.18 1.14 1.06 1.15 1.27 1.31 1.39 1.40
0.44 0.57 0.74 0.92 1.21 1.39 1.50 1.62 1.80 1.95 2.00 2.01 2.00 1.99 1.98 1.96 1.86 1.79 1.76 1.83 1.95 2.11 2.17 2.25 2.39 2.62 2.72 2.80 2.74 2.48 2.39 2.22 1.93 1.80 1.55 1.40 1.40 1.21 1.18 1.21 1.25 1.38 1.51